McAllen, TX

12:01 AM CDT on April 29, 2017 (GMT -0500)
McAllen Miller International

Weather History for KMFE - December, 2012

Change the Weather History Date:

Thursday, December 27, 2012

  Actual Average Record
Temperature  
Mean Temperature 54 °F 60 °F  
Max Temperature 66 °F 70 °F 94 °F (1968)
Min Temperature 42 °F 51 °F 37 °F (1983)
Degree Days  
Heating Degree Days 11 7  
Month to date heating degree days 65 150  
Since 1 July heating degree days 80 210  
Cooling Degree Days 0 2  
Month to date cooling degree days 167 74  
Year to date cooling degree days 5256 4443  
Growing Degree Days 4 (Base 50)    
Moisture  
Dew Point 43 °F    
Average Humidity 62    
Maximum Humidity 72    
Minimum Humidity 52    
Precipitation  
Precipitation 0.00 in 0.04 in 0.92 in (1984)
Month to date precipitation T 1.02  
Year to date precipitation 17.47 22.03  
Sea Level Pressure  
Sea Level Pressure 29.90 in    
Wind  
Wind Speed 4 mph (NNE)    
Max Wind Speed 10 mph    
Max Gust Speed 13 mph    
Visibility 10 miles    
Events      
T = Trace of Precipitation, MM = Missing Value Source: NWS Daily Summary

Daily Weather History Graph

Daily Weather History Graph

Search for Another Location

Airport or City:

Trip Planner

Search our weather history database for the weather conditions in past years. The results will help you decide how hot, cold, wet, or windy it might be!

Date:

Astronomy

Dec. 27, 2012 Rise Set
Actual Time 7:18 AM CST 5:49 PM CST
Civil Twilight 6:53 AM CST 6:15 PM CST
Nautical Twilight 6:24 AM CST 6:43 PM CST
Astronomical Twilight 5:56 AM CST 7:12 PM CST
Moon 5:30 PM CST (12/27) 6:33 AM CST (12/27)
Length of Visible Light 11h 21m
Length of Day
10h 30m
Full, 100% of the Moon is Illuminated
Dec 27
Full
Dec 28
Full
Jan 4
Last Quarter
Jan 11
New
Jan 18
First Quarter

Hourly Weather History & Observations

Time (CST) Temp. Dew Point Humidity Pressure Visibility Wind Dir Wind Speed Gust Speed Precip Events Conditions
12:53 AM 45.0 °F 35.1 °F 68% 30.07 in 10.0 mi Calm Calm - N/A   Mostly Cloudy
1:53 AM 48.0 °F 35.1 °F 61% 30.04 in 10.0 mi Calm Calm - N/A   Overcast
2:53 AM 48.9 °F 35.1 °F 59% 30.04 in 10.0 mi North 5.8 mph - N/A   Overcast
3:53 AM 48.9 °F 36.0 °F 61% 30.01 in 10.0 mi North 4.6 mph - N/A   Overcast
4:53 AM 48.9 °F 37.0 °F 64% 29.99 in 10.0 mi NNE 3.5 mph - N/A   Overcast
5:53 AM 50.0 °F 37.0 °F 61% 29.97 in 10.0 mi NNE 3.5 mph - N/A   Overcast
6:53 AM 50.0 °F 36.0 °F 59% 29.98 in 10.0 mi NNW 4.6 mph - N/A   Overcast
7:53 AM 50.0 °F 37.0 °F 61% 29.98 in 10.0 mi North 3.5 mph - N/A   Overcast
8:53 AM 51.1 °F 37.9 °F 61% 29.98 in 10.0 mi North 4.6 mph - N/A   Overcast
9:53 AM 52.0 °F 39.0 °F 61% 29.99 in 10.0 mi North 4.6 mph - N/A   Overcast
10:53 AM 55.0 °F 39.9 °F 57% 29.96 in 10.0 mi North 4.6 mph - N/A   Overcast
11:28 AM 57.2 °F 41.0 °F 55% 29.96 in 10.0 mi NW 3.5 mph - N/A   Overcast
11:53 AM 57.0 °F 42.1 °F 57% 29.94 in 10.0 mi North 3.5 mph - N/A   Overcast
12:38 PM 59.0 °F 42.8 °F 55% 29.91 in 10.0 mi Calm Calm - N/A   Overcast
12:53 PM 60.1 °F 44.1 °F 55% 29.90 in 10.0 mi NNE 3.5 mph - N/A   Overcast
1:53 PM 61.0 °F 45.0 °F 56% 29.85 in 10.0 mi Calm Calm - N/A   Overcast
2:12 PM 62.6 °F 44.6 °F 52% 29.83 in 10.0 mi Calm Calm - N/A   Overcast
2:53 PM 64.9 °F 46.0 °F 50% 29.82 in 10.0 mi Calm Calm - N/A   Scattered Clouds
3:53 PM 64.9 °F 48.0 °F 54% 29.81 in 10.0 mi East 3.5 mph - N/A   Clear
4:53 PM 64.9 °F 48.0 °F 54% 29.80 in 10.0 mi East 4.6 mph - N/A   Clear
5:53 PM 64.0 °F 48.0 °F 56% 29.79 in 10.0 mi NE 4.6 mph - N/A   Clear
6:53 PM 63.0 °F 48.0 °F 58% 29.80 in 10.0 mi North 3.5 mph - N/A   Clear
7:53 PM 63.0 °F 48.9 °F 60% 29.81 in 10.0 mi North 3.5 mph - N/A   Clear
8:30 PM 62.6 °F 48.2 °F 59% 29.82 in 10.0 mi Calm Calm - N/A   Overcast
8:53 PM 64.0 °F 48.9 °F 58% 29.82 in 10.0 mi North 4.6 mph - N/A   Overcast
9:53 PM 63.0 °F 50.0 °F 63% 29.82 in 10.0 mi NNE 5.8 mph - N/A   Overcast
10:37 PM 62.6 °F 50.0 °F 63% 29.81 in 10.0 mi Calm Calm - N/A   Scattered Clouds
10:53 PM 61.0 °F 51.1 °F 70% 29.81 in 10.0 mi NE 4.6 mph - N/A   Clear
11:53 PM 60.1 °F 50.0 °F 69% 29.80 in 10.0 mi NE 5.8 mph - N/A   Clear